TimeEDT,TemperatureF,Dew PointF,Humidity,Sea Level PressureIn,VisibilityMPH,Wind Direction,Wind SpeedMPH,Gust SpeedMPH,PrecipitationIn,Events,Conditions,WindDirDegrees,DateUTC
12:15 AM,24.3,20.1,84,30.03,10.0,West,5.8,-,N/A,,Overcast,270,2013-03-23 04:15:00
12:34 AM,24.8,20.7,84,30.02,10.0,West,6.9,-,N/A,,Overcast,270,2013-03-23 04:34:00
12:55 AM,24.4,20.3,84,30.03,10.0,West,6.9,-,N/A,,Overcast,280,2013-03-23 04:55:00
1:15 AM,24.3,20.3,85,30.03,10.0,West,5.8,-,N/A,,Mostly Cloudy,280,2013-03-23 05:15:00
1:35 AM,23.9,20.1,85,30.03,10.0,West,6.9,-,N/A,,Mostly Cloudy,270,2013-03-23 05:35:00
1:55 AM,23.4,19.9,87,30.03,10.0,West,5.8,-,N/A,,Scattered Clouds,260,2013-03-23 05:55:00
2:15 AM,23.0,19.6,87,30.03,10.0,West,5.8,-,N/A,,Clear,270,2013-03-23 06:15:00
2:35 AM,23.0,20.1,89,30.03,10.0,West,5.8,-,N/A,,Clear,270,2013-03-23 06:35:00
2:55 AM,22.1,19.6,90,30.03,10.0,West,6.9,-,N/A,,Clear,270,2013-03-23 06:55:00
3:15 AM,22.1,19.9,91,30.03,10.0,West,4.6,-,N/A,,Clear,260,2013-03-23 07:15:00
3:35 AM,22.1,19.9,91,30.03,10.0,West,4.6,-,N/A,,Clear,270,2013-03-23 07:35:00
3:55 AM,22.1,20.3,93,30.02,10.0,West,6.9,-,N/A,,Clear,260,2013-03-23 07:55:00
4:15 AM,21.9,20.3,93,30.03,10.0,West,5.8,-,N/A,,Clear,260,2013-03-23 08:15:00
4:35 AM,21.7,20.1,93,30.02,10.0,West,6.9,-,N/A,,Clear,270,2013-03-23 08:35:00
4:55 AM,22.1,20.8,95,30.03,10.0,West,6.9,-,N/A,,Clear,260,2013-03-23 08:55:00
5:15 AM,22.1,20.8,95,30.02,10.0,West,6.9,-,N/A,,Clear,270,2013-03-23 09:15:00
5:35 AM,21.2,19.8,94,30.03,10.0,West,5.8,-,N/A,,Clear,260,2013-03-23 09:35:00
5:55 AM,22.1,20.8,95,30.03,10.0,WSW,5.8,-,N/A,,Clear,250,2013-03-23 09:55:00
6:15 AM,21.9,20.7,95,30.04,10.0,WSW,5.8,-,N/A,,Clear,250,2013-03-23 10:15:00
6:35 AM,20.8,19.6,95,30.04,10.0,Calm,Calm,-,N/A,,Clear,0,2013-03-23 10:35:00
6:54 AM,20.3,19.4,96,30.05,10.0,Calm,Calm,-,N/A,,Clear,0,2013-03-23 10:54:00
7:15 AM,20.3,19.8,98,30.05,10.0,Calm,Calm,-,N/A,,Clear,0,2013-03-23 11:15:00
7:35 AM,19.0,18.1,96,30.06,10.0,Calm,Calm,-,N/A,,Clear,0,2013-03-23 11:35:00
7:55 AM,18.0,16.9,96,30.07,10.0,Calm,Calm,-,N/A,,Scattered Clouds,0,2013-03-23 11:55:00
8:15 AM,20.1,19.2,96,30.07,10.0,Calm,Calm,-,N/A,,Scattered Clouds,0,2013-03-23 12:15:00
8:35 AM,19.9,18.7,95,30.07,10.0,West,3.5,-,N/A,,Clear,280,2013-03-23 12:35:00
9:15 AM,24.3,22.6,94,30.07,10.0,WNW,5.8,-,N/A,,Clear,290,2013-03-23 13:15:00
9:35 AM,25.0,23.4,94,30.08,10.0,WNW,3.5,-,N/A,,Clear,300,2013-03-23 13:35:00
9:55 AM,27.1,23.7,87,30.08,10.0,Calm,Calm,-,N/A,,Clear,0,2013-03-23 13:55:00
10:15 AM,27.5,23.4,84,30.08,10.0,North,4.6,-,N/A,,Clear,350,2013-03-23 14:15:00
10:35 AM,28.4,23.2,81,30.09,10.0,Calm,Calm,-,N/A,,Clear,0,2013-03-23 14:35:00
10:55 AM,29.3,23.2,78,30.09,10.0,Calm,Calm,-,N/A,,Clear,0,2013-03-23 14:55:00
11:15 AM,30.2,22.6,73,30.09,10.0,Calm,Calm,-,N/A,,Clear,0,2013-03-23 15:15:00
11:34 AM,31.1,21.9,69,30.08,10.0,NW,3.5,-,N/A,,Clear,320,2013-03-23 15:34:00
11:55 AM,31.8,21.0,64,30.08,10.0,North,3.5,-,N/A,,Clear,360,2013-03-23 15:55:00
12:15 PM,32.0,22.5,68,30.08,10.0,North,6.9,-,N/A,,Clear,360,2013-03-23 16:15:00
12:35 PM,32.0,22.5,68,30.08,10.0,NNW,5.8,-,N/A,,Clear,340,2013-03-23 16:35:00
12:55 PM,32.5,22.5,66,30.08,10.0,North,6.9,-,N/A,,Clear,360,2013-03-23 16:55:00
1:14 PM,32.9,22.6,66,30.08,10.0,North,6.9,-,N/A,,Clear,10,2013-03-23 17:14:00
1:35 PM,33.6,22.6,64,30.08,10.0,North,5.8,-,N/A,,Clear,360,2013-03-23 17:35:00
1:55 PM,34.7,22.1,60,30.08,10.0,North,5.8,-,N/A,,Clear,350,2013-03-23 17:55:00
2:15 PM,34.2,22.1,61,30.08,10.0,Calm,Calm,-,N/A,,Scattered Clouds,0,2013-03-23 18:15:00
2:35 PM,34.5,23.9,65,30.08,10.0,North,5.8,-,N/A,,Mostly Cloudy,10,2013-03-23 18:35:00
2:55 PM,33.1,25.7,74,30.07,10.0,North,5.8,-,N/A,,Overcast,360,2013-03-23 18:55:00
3:15 PM,34.0,25.5,71,30.07,10.0,North,6.9,-,N/A,,Overcast,360,2013-03-23 19:15:00
3:35 PM,34.7,25.5,69,30.07,10.0,North,6.9,-,N/A,,Overcast,350,2013-03-23 19:35:00
3:55 PM,35.6,23.2,61,30.07,10.0,NW,6.9,-,N/A,,Overcast,320,2013-03-23 19:55:00
4:15 PM,36.3,23.2,59,30.06,10.0,WNW,12.7,-,N/A,,Overcast,300,2013-03-23 20:15:00
4:35 PM,35.8,23.7,62,30.07,10.0,WNW,10.4,-,N/A,,Overcast,300,2013-03-23 20:35:00
4:55 PM,35.2,23.2,62,30.07,10.0,NW,12.7,16.1,N/A,,Overcast,310,2013-03-23 20:55:00
5:15 PM,34.7,23.7,64,30.07,10.0,WNW,15.0,-,N/A,,Overcast,300,2013-03-23 21:15:00
5:35 PM,34.7,24.3,66,30.07,10.0,West,11.5,-,N/A,,Overcast,280,2013-03-23 21:35:00
5:55 PM,34.3,24.4,67,30.06,10.0,WNW,9.2,-,N/A,,Overcast,290,2013-03-23 21:55:00
6:15 PM,34.2,24.6,68,30.06,10.0,WNW,6.9,-,N/A,,Overcast,290,2013-03-23 22:15:00
6:35 PM,34.3,24.6,68,30.07,10.0,WNW,8.1,-,N/A,,Overcast,290,2013-03-23 22:35:00
6:55 PM,34.0,25.0,70,30.07,10.0,NW,5.8,-,N/A,,Overcast,310,2013-03-23 22:55:00
7:15 PM,32.9,26.1,76,30.08,10.0,NNW,6.9,-,N/A,,Overcast,330,2013-03-23 23:15:00
7:35 PM,32.9,26.2,76,30.08,10.0,NW,9.2,-,N/A,,Overcast,310,2013-03-23 23:35:00
7:55 PM,32.5,26.6,79,30.08,10.0,NW,6.9,-,N/A,,Overcast,310,2013-03-23 23:55:00
8:14 PM,32.4,27.7,83,30.09,10.0,WNW,8.1,-,N/A,,Overcast,300,2013-03-24 00:14:00
8:35 PM,32.0,28.2,86,30.09,10.0,NW,8.1,-,N/A,,Overcast,320,2013-03-24 00:35:00
8:55 PM,32.0,28.2,86,30.09,10.0,NNW,4.6,-,N/A,,Overcast,330,2013-03-24 00:55:00
9:14 PM,31.8,27.3,83,30.09,10.0,NNW,5.8,-,N/A,,Overcast,340,2013-03-24 01:14:00
9:35 PM,31.5,25.7,79,30.09,10.0,North,8.1,-,N/A,,Overcast,350,2013-03-24 01:35:00
9:55 PM,31.1,24.6,77,30.10,10.0,North,8.1,-,N/A,,Overcast,350,2013-03-24 01:55:00
10:15 PM,30.6,24.3,77,30.10,10.0,NNW,6.9,-,N/A,,Overcast,330,2013-03-24 02:15:00
10:35 PM,30.0,24.1,79,30.10,10.0,NNW,6.9,-,N/A,,Overcast,340,2013-03-24 02:35:00
10:55 PM,29.7,23.9,79,30.10,10.0,NNW,3.5,-,N/A,,Overcast,340,2013-03-24 02:55:00
11:15 PM,28.9,23.0,78,30.10,10.0,NNW,5.8,-,N/A,,Mostly Cloudy,330,2013-03-24 03:15:00
11:35 PM,27.9,22.8,81,30.10,10.0,NNW,3.5,-,N/A,,Scattered Clouds,330,2013-03-24 03:35:00
11:55 PM,26.6,22.5,84,30.10,10.0,NNW,4.6,-,N/A,,Mostly Cloudy,330,2013-03-24 03:55:00